Temp
-8 -8 -7 -7 -7 -7 -7 -8 -7 -7 -7 -8 -8 -8 -9 -8 -9 -9 -9 -9 -9 -9 -8 -9 -9 -8 -8 -9 -9 -9 -10 -10 -10 -10 -11 -11 -11 -11 -11 -11 -11 -10 -10 -10 -11 -11 -11 -12 -12
-8 -7 -7 -7 -7 -7 -8 -8 -7 -7 -7 -8 -8 -8 -8 -9 -9 -9 -9 -9 -9 -9 -9 -9 -9 -9 -9 -8 -9 -9 -10 -10 -11 -11 -11 -11 -11 -11 -11 -12 -12 -12 -12 -12 -12 -12 -12 -12 -12
-8 -7 -7 -7 -7 -7 -8 -8 -8 -7 -8 -8 -8 -8 -8 -9 -10 -10 -10 -10 -10 -9 -9 -9 -9 -9 -9 -9 -9 -10 -10 -10 -11 -11 -11 -11 -11 -11 -11 -11 -12 -12 -12 -12 -13 -12 -12 -12 -12
-8 -8 -7 -7 -7 -7 -8 -9 -8 -8 -8 -8 -8 -8 -9 -10 -11 -11 -11 -10 -10 -10 -10 -9 -9 -9 -9 -9 -9 -10 -10 -11 -11 -11 -11 -11 -11 -11 -12 -11 -12 -12 -12 -12 -13 -13 -13 -12 -12
-8 -8 -7 -7 -7 -7 -10 -10 -8 -8 -8 -8 -8 -8 -9 -10 -11 -11 -11 -11 -11 -10 -10 -10 -10 -10 -9 -9 -10 -10 -10 -11 -12 -12 -11 -11 -12 -12 -12 -12 -12 -12 -12 -12 -13 -14 -13 -13 -13
-8 -8 -8 -7 -8 -8 -10 -10 -9 -9 -9 -8 -8 -8 -9 -11 -12 -12 -11 -11 -11 -11 -11 -10 -10 -10 -10 -10 -10 -10 -11 -12 -12 -12 -12 -12 -12 -12 -12 -11 -11 -12 -12 -12 -13 -13 -13 -13 -12
-9 -9 -8 -8 -8 -8 -11 -10 -9 -9 -9 -8 -8 -8 -9 -11 -11 -11 -10 -11 -12 -11 -11 -11 -11 -11 -11 -11 -11 -11 -12 -12 -12 -12 -12 -12 -10 -12 -12 -11 -11 -12 -14 -13 -13 -14 -13 -13 -13
-10 -9 -9 -8 -8 -9 -12 -11 -10 -9 -9 -8 -9 -9 -9 -10 -10 -10 -11 -12 -12 -12 -12 -11 -11 -11 -11 -11 -11 -12 -12 -12 -12 -12 -12 -12 -12 -12 -12 -12 -12 -11 -12 -12 -13 -14 -14 -13 -13
-10 -10 -9 -9 -9 -10 -12 -10 -10 -9 -9 -9 -9 -9 -10 -10 -10 -11 -11 -12 -13 -13 -13 -12 -12 -12 -12 -12 -12 -12 -12 -12 -12 -12 -12 -12 -12 -12 -12 -12 -12 -11 -11 -11 -12 -14 -14 -13 -13
-11 -10 -10 -10 -10 -10 -11 -10 -10 -9 -9 -9 -9 -10 -10 -10 -10 -11 -12 -12 -13 -14 -13 -12 -12 -12 -12 -12 -12 -12 -12 -12 -12 -12 -12 -12 -12 -12 -12 -12 -12 -11 -11 -11 -12 -13 -14 -14 -14
-11 -10 -11 -10 -10 -10 -10 -10 -10 -9 -9 -10 -9 -9 -10 -10 -11 -11 -12 -13 -14 -14 -13 -13 -12 -12 -12 -13 -12 -12 -13 -12 -12 -12 -12 -12 -12 -12 -12 -12 -12 -12 -11 -12 -12 -13 -13 -14 -14
-11 -11 -11 -11 -11 -11 -10 -11 -10 -10 -10 -11 -10 -10 -10 -11 -11 -12 -12 -13 -14 -14 -14 -13 -12 -13 -13 -13 -13 -13 -13 -13 -13 -12 -12 -12 -12 -12 -12 -12 -12 -12 -12 -12 -12 -13 -13 -13 -14
-11 -12 -11 -11 -11 -11 -10 -10 -11 -10 -12 -12 -11 -11 -11 -11 -11 -12 -13 -13 -14 -14 -14 -13 -12 -13 -13 -13 -13 -13 -13 -13 -13 -12 -12 -12 -12 -12 -12 -12 -12 -12 -12 -12 -12 -13 -13 -14 -14
-12 -12 -12 -11 -11 -11 -11 -11 -10 -12 -12 -12 -12 -11 -11 -11 -12 -13 -13 -14 -14 -15 -14 -14 -13 -13 -13 -13 -13 -13 -13 -13 -13 -12 -12 -13 -12 -12 -12 -12 -12 -12 -12 -12 -12 -12 -13 -14 -13
-13 -12 -12 -12 -12 -11 -11 -10 -11 -11 -12 -12 -12 -12 -12 -12 -13 -13 -14 -14 -15 -15 -15 -14 -13 -14 -13 -13 -13 -13 -13 -13 -13 -13 -13 -13 -13 -13 -13 -13 -12 -12 -12 -12 -12 -12 -12 -13 -13
-13 -13 -13 -12 -12 -12 -11 -10 -11 -12 -12 -12 -12 -12 -12 -13 -13 -14 -14 -15 -15 -15 -15 -14 -13 -14 -13 -13 -13 -13 -13 -13 -13 -13 -13 -13 -13 -13 -13 -13 -13 -12 -12 -12 -12 -12 -12 -13 -13
-14 -13 -13 -13 -13 -12 -12 -10 -11 -12 -12 -12 -11 -12 -12 -12 -14 -14 -14 -15 -16 -16 -15 -14 -14 -14 -13 -13 -13 -13 -13 -13 -13 -13 -13 -13 -13 -13 -13 -13 -13 -13 -12 -12 -12 -12 -13 -13 -13
-15 -13 -13 -13 -13 -13 -11 -11 -11 -12 -12 -11 -11 -12 -12 -13 -14 -14 -15 -15 -16 -15 -14 -14 -14 -14 -13 -13 -13 -13 -13 -13 -13 -13 -13 -12 -12 -13 -13 -13 -13 -13 -12 -13 -12 -12 -13 -13 -13
-15 -14 -13 -14 -13 -12 -11 -11 -11 -11 -12 -11 -11 -12 -13 -14 -14 -14 -15 -16 -16 -15 -15 -15 -15 -13 -14 -13 -13 -13 -13 -13 -13 -13 -12 -12 -12 -12 -13 -13 -13 -13 -12 -13 -13 -13 -13 -13 -13
-15 -14 -14 -14 -13 -12 -12 -11 -12 -12 -12 -11 -12 -12 -13 -14 -14 -14 -15 -16 -16 -16 -15 -15 -15 -14 -13 -13 -13 -13 -13 -13 -13 -13 -12 -12 -12 -12 -13 -12 -13 -13 -13 -13 -13 -13 -13 -13 -13
-16 -15 -14 -13 -14 -13 -12 -11 -12 -12 -12 -12 -12 -12 -14 -14 -14 -14 -15 -16 -16 -16 -16 -15 -15 -14 -13 -13 -14 -13 -14 -14 -13 -13 -12 -11 -12 -12 -12 -12 -12 -12 -12 -13 -12 -13 -13 -14 -13
-16 -15 -14 -14 -14 -13 -14 -12 -12 -12 -12 -12 -13 -13 -15 -15 -14 -15 -15 -15 -16 -16 -16 -15 -14 -14 -14 -14 -14 -14 -14 -13 -13 -12 -12 -12 -13 -12 -12 -12 -12 -12 -12 -12 -12 -13 -13 -13 -13
-16 -16 -15 -15 -14 -13 -14 -13 -12 -13 -14 -14 -14 -15 -16 -15 -14 -15 -15 -15 -16 -16 -15 -15 -14 -14 -14 -14 -14 -14 -14 -13 -13 -13 -13 -13 -13 -13 -13 -13 -13 -12 -12 -13 -12 -13 -15 -14 -13
-17 -16 -16 -15 -15 -14 -15 -14 -14 -14 -15 -15 -15 -16 -15 -15 -15 -15 -15 -16 -15 -16 -15 -14 -14 -14 -14 -14 -14 -14 -14 -14 -13 -13 -13 -13 -13 -13 -13 -14 -13 -13 -13 -12 -13 -13 -13 -13 -13
-17 -17 -16 -16 -16 -15 -14 -14 -15 -15 -15 -16 -15 -15 -15 -15 -15 -15 -16 -16 -15 -15 -14 -14 -14 -14 -14 -14 -14 -14 -14 -14 -14 -13 -13 -13 -13 -13 -13 -13 -13 -13 -13 -13 -13 -13 -13 -14 -14
-18 -17 -17 -17 -16 -15 -15 -15 -15 -15 -15 -15 -15 -16 -16 -15 -15 -16 -16 -15 -15 -15 -15 -14 -14 -14 -14 -14 -14 -14 -14 -14 -14 -14 -13 -13 -13 -13 -13 -13 -13 -13 -13 -13 -13 -13 -13 -14 -14
-18 -18 -17 -17 -16 -15 -16 -15 -15 -15 -15 -15 -16 -16 -16 -16 -16 -16 -16 -15 -15 -16 -15 -15 -14 -14 -14 -14 -14 -14 -14 -14 -14 -14 -14 -13 -13 -13 -13 -13 -13 -13 -13 -13 -13 -13 -14 -14 -14
-19 -18 -18 -17 -17 -16 -16 -16 -16 -16 -15 -15 -16 -16 -16 -16 -16 -16 -15 -15 -15 -16 -15 -15 -14 -14 -14 -14 -14 -14 -14 -14 -13 -13 -14 -14 -14 -14 -14 -13 -13 -13 -13 -13 -14 -14 -14 -14 -14
-19 -19 -18 -18 -17 -17 -17 -17 -17 -16 -15 -15 -15 -16 -16 -16 -15 -16 -16 -15 -15 -16 -16 -15 -14 -13 -14 -14 -14 -14 -14 -14 -14 -14 -13 -13 -14 -14 -14 -14 -14 -13 -13 -13 -13 -14 -14 -14 -14
-20 -19 -19 -18 -18 -18 -18 -18 -17 -17 -16 -16 -16 -16 -16 -16 -16 -16 -15 -15 -15 -16 -16 -16 -14 -14 -14 -13 -14 -14 -14 -14 -14 -14 -14 -14 -14 -14 -14 -14 -14 -14 -14 -14 -14 -14 -14 -15 -15
Height
5827 5828 5829 5830 5833 5831 5832 5832 5829 5828 5828 5828 5827 5826 5826 5826 5826 5827 5824 5822 5821 5821 5820 5819 5817 5817 5817 5817 5816 5815 5815 5814 5813 5814 5814 5813 5814 5815 5815 5816 5817 5819 5821 5824 5826 5830 5834 5838 5841
5821 5822 5823 5824 5826 5825 5827 5825 5824 5822 5821 5821 5821 5820 5820 5820 5820 5819 5818 5817 5816 5814 5814 5813 5813 5812 5812 5812 5811 5810 5809 5809 5809 5810 5810 5810 5811 5812 5811 5813 5814 5814 5817 5820 5823 5827 5830 5834 5838
5814 5814 5816 5816 5819 5820 5820 5818 5817 5816 5816 5815 5814 5814 5813 5815 5814 5814 5812 5812 5812 5810 5809 5809 5808 5808 5807 5805 5805 5805 5803 5803 5803 5805 5805 5806 5806 5807 5807 5808 5810 5811 5812 5814 5819 5822 5827 5831 5834
5806 5807 5808 5809 5812 5813 5811 5809 5809 5809 5810 5810 5809 5808 5809 5810 5809 5808 5807 5807 5808 5805 5804 5804 5804 5802 5802 5800 5799 5800 5798 5796 5797 5798 5800 5800 5799 5799 5801 5802 5804 5806 5808 5811 5814 5819 5824 5827 5830
5799 5800 5800 5803 5805 5806 5803 5801 5802 5803 5803 5802 5803 5804 5804 5804 5803 5802 5801 5802 5803 5800 5798 5799 5799 5798 5797 5795 5793 5794 5792 5791 5790 5791 5794 5795 5793 5795 5795 5796 5799 5802 5804 5807 5811 5815 5820 5823 5825
5791 5793 5794 5796 5798 5796 5794 5795 5796 5796 5796 5795 5796 5797 5798 5798 5797 5795 5795 5796 5798 5795 5793 5794 5793 5793 5790 5789 5787 5786 5785 5785 5785 5786 5788 5788 5786 5787 5784 5786 5790 5794 5799 5802 5807 5812 5815 5818 5821
5784 5784 5786 5788 5789 5789 5786 5788 5788 5788 5788 5787 5789 5790 5791 5790 5789 5789 5789 5789 5793 5790 5789 5788 5788 5787 5785 5783 5782 5780 5778 5780 5780 5779 5780 5782 5774 5783 5785 5782 5786 5790 5793 5796 5802 5806 5810 5814 5818
5775 5775 5776 5779 5780 5781 5777 5778 5779 5779 5779 5780 5781 5782 5783 5782 5782 5782 5782 5782 5786 5783 5783 5783 5782 5782 5780 5778 5776 5774 5773 5773 5775 5772 5775 5778 5780 5776 5780 5782 5786 5786 5786 5789 5795 5801 5803 5810 5815
5766 5766 5768 5770 5771 5770 5765 5768 5769 5770 5771 5771 5773 5774 5774 5775 5776 5775 5776 5776 5779 5776 5777 5777 5777 5776 5774 5772 5771 5769 5768 5768 5768 5766 5768 5771 5773 5772 5774 5774 5776 5783 5784 5786 5790 5796 5802 5805 5810
5755 5758 5759 5760 5759 5759 5758 5760 5760 5762 5762 5763 5764 5765 5768 5770 5769 5768 5769 5770 5773 5771 5770 5771 5772 5770 5768 5767 5766 5764 5762 5762 5763 5760 5761 5764 5766 5767 5769 5768 5772 5777 5779 5784 5787 5791 5797 5801 5806
5746 5748 5749 5749 5750 5751 5752 5753 5753 5753 5754 5753 5755 5759 5761 5762 5761 5761 5762 5765 5768 5766 5764 5765 5766 5763 5762 5761 5760 5759 5758 5756 5756 5754 5754 5757 5759 5760 5762 5764 5768 5772 5777 5780 5783 5786 5793 5798 5802
5732 5737 5738 5739 5740 5742 5744 5745 5745 5746 5744 5745 5750 5750 5752 5753 5754 5755 5756 5758 5761 5761 5759 5759 5760 5757 5756 5756 5754 5753 5752 5752 5751 5749 5748 5752 5753 5755 5756 5758 5763 5769 5774 5776 5780 5783 5788 5793 5797
5723 5727 5727 5729 5731 5734 5735 5738 5737 5733 5738 5741 5739 5742 5743 5744 5745 5748 5749 5750 5754 5755 5753 5754 5754 5751 5750 5751 5750 5748 5747 5746 5746 5746 5744 5745 5747 5749 5751 5755 5758 5764 5770 5773 5775 5779 5783 5788 5793
5713 5714 5718 5720 5722 5725 5727 5728 5723 5730 5731 5730 5732 5733 5733 5735 5737 5739 5742 5745 5748 5748 5747 5748 5747 5745 5744 5745 5745 5743 5742 5741 5741 5742 5741 5742 5743 5745 5747 5750 5752 5758 5765 5768 5770 5774 5778 5783 5787
5704 5705 5706 5711 5712 5715 5716 5718 5719 5720 5720 5721 5723 5724 5724 5727 5729 5732 5735 5738 5740 5741 5741 5742 5741 5738 5739 5740 5740 5738 5737 5737 5737 5737 5737 5737 5738 5739 5740 5743 5745 5752 5758 5763 5766 5769 5773 5778 5782
5694 5695 5698 5701 5702 5704 5707 5709 5711 5711 5711 5713 5713 5714 5715 5718 5721 5724 5728 5732 5734 5734 5734 5735 5735 5733 5733 5735 5734 5733 5733 5733 5732 5732 5732 5733 5732 5733 5735 5738 5742 5746 5753 5758 5761 5764 5768 5773 5777
5684 5687 5688 5689 5692 5695 5698 5699 5701 5702 5702 5704 5702 5703 5706 5709 5712 5717 5721 5724 5727 5727 5728 5729 5728 5728 5728 5730 5728 5728 5728 5728 5728 5727 5727 5727 5727 5726 5728 5731 5735 5740 5746 5751 5755 5759 5762 5767 5771
5675 5675 5677 5681 5686 5686 5689 5691 5691 5692 5693 5694 5694 5693 5696 5700 5705 5708 5712 5716 5720 5721 5723 5723 5722 5722 5723 5724 5723 5723 5723 5723 5723 5722 5721 5721 5720 5720 5720 5724 5729 5734 5740 5745 5750 5754 5757 5761 5764
5664 5667 5669 5673 5674 5675 5679 5682 5681 5681 5684 5685 5685 5685 5685 5689 5697 5700 5704 5710 5713 5716 5717 5717 5717 5718 5719 5720 5719 5719 5718 5717 5716 5716 5715 5714 5713 5712 5712 5717 5723 5729 5735 5740 5745 5747 5752 5755 5761
5655 5657 5660 5663 5664 5666 5669 5672 5671 5672 5674 5673 5673 5675 5675 5680 5686 5692 5696 5702 5707 5710 5711 5712 5712 5713 5714 5715 5714 5714 5714 5711 5709 5707 5707 5706 5706 5706 5709 5712 5717 5723 5728 5735 5742 5744 5748 5753 5756
5647 5648 5651 5654 5656 5657 5659 5663 5664 5663 5661 5661 5662 5663 5665 5671 5678 5683 5688 5695 5701 5705 5706 5707 5707 5708 5710 5711 5709 5709 5708 5706 5703 5699 5699 5699 5700 5701 5704 5708 5712 5719 5726 5733 5738 5743 5748 5751 5752
5639 5642 5643 5646 5646 5648 5651 5652 5654 5651 5648 5647 5650 5651 5657 5664 5671 5676 5681 5688 5695 5699 5700 5702 5703 5703 5706 5706 5705 5704 5703 5701 5698 5695 5694 5695 5696 5695 5698 5703 5709 5716 5722 5729 5736 5741 5744 5746 5748
5632 5635 5636 5637 5638 5639 5642 5642 5643 5639 5633 5636 5638 5641 5649 5656 5663 5671 5676 5681 5687 5691 5694 5697 5698 5699 5702 5701 5701 5700 5699 5697 5696 5693 5693 5694 5695 5695 5697 5700 5704 5711 5717 5723 5730 5737 5740 5741 5742
5624 5627 5629 5629 5631 5632 5634 5631 5633 5630 5627 5626 5628 5633 5640 5649 5658 5665 5669 5675 5681 5685 5690 5692 5693 5695 5697 5697 5698 5697 5696 5694 5694 5693 5691 5691 5693 5695 5697 5699 5701 5709 5714 5720 5727 5730 5733 5736 5738
5617 5620 5622 5623 5625 5627 5624 5624 5625 5623 5623 5626 5629 5633 5637 5645 5653 5660 5665 5671 5676 5681 5684 5687 5688 5690 5693 5693 5695 5694 5693 5692 5693 5693 5692 5691 5691 5693 5696 5700 5703 5707 5712 5716 5721 5725 5729 5730 5732
5610 5613 5616 5616 5617 5618 5617 5619 5618 5618 5620 5623 5625 5630 5634 5640 5647 5655 5662 5666 5670 5677 5679 5681 5684 5685 5688 5690 5692 5692 5691 5691 5691 5692 5692 5693 5693 5693 5694 5698 5700 5704 5709 5712 5717 5719 5722 5724 5726
5604 5606 5609 5610 5610 5609 5611 5612 5611 5613 5615 5618 5618 5624 5631 5637 5643 5651 5656 5660 5665 5668 5672 5676 5679 5680 5683 5686 5688 5689 5689 5690 5690 5691 5691 5691 5692 5694 5695 5696 5698 5701 5704 5708 5710 5713 5715 5717 5719
5597 5600 5602 5603 5604 5603 5605 5605 5605 5608 5609 5611 5615 5621 5626 5632 5639 5645 5649 5653 5658 5664 5668 5671 5674 5677 5679 5681 5684 5686 5688 5689 5690 5690 5691 5691 5692 5694 5695 5696 5697 5699 5700 5702 5705 5707 5709 5711 5712
5591 5593 5596 5597 5598 5597 5599 5600 5600 5601 5603 5605 5609 5615 5621 5628 5632 5637 5643 5647 5652 5658 5663 5667 5669 5672 5675 5678 5679 5682 5684 5686 5688 5689 5690 5691 5691 5691 5692 5694 5696 5697 5698 5699 5700 5701 5703 5704 5704
5585 5587 5589 5591 5593 5593 5593 5597 5595 5596 5597 5599 5602 5609 5616 5622 5627 5632 5636 5641 5647 5653 5657 5661 5663 5668 5671 5674 5676 5678 5681 5683 5685 5687 5688 5688 5688 5689 5689 5689 5689 5691 5693 5694 5696 5697 5698 5698 5698
Wind_Speed
31 31 29 28 30 28 25 28 32 33 31 26 27 27 26 26 24 25 26 29 30 29 29 29 26 24 28 27 25 23 25 25 24 20 20 20 20 18 21 21 20 22 24 23 22 22 21 18 16
29 31 32 31 31 28 26 28 32 33 33 30 28 28 29 27 25 28 28 30 30 32 32 31 31 29 27 26 26 25 24 26 24 24 23 24 22 21 21 18 20 20 21 21 20 23 22 20 17
30 31 33 33 34 32 29 27 32 32 32 31 31 30 30 26 28 29 30 30 29 36 33 32 32 31 30 23 27 27 27 27 27 28 27 25 24 23 23 21 19 21 25 23 23 24 23 20 19
32 34 35 37 36 35 31 30 32 32 32 29 30 32 32 27 28 28 32 31 29 36 37 34 35 33 30 25 25 28 27 27 29 30 29 28 26 23 23 24 22 22 24 24 23 25 23 22 22
34 36 36 35 34 33 25 29 32 32 32 31 32 32 30 29 29 32 36 34 30 35 39 36 36 33 28 26 25 28 29 26 27 27 29 28 29 29 31 26 25 25 23 22 21 20 23 24 23
39 39 38 35 31 32 29 27 30 30 31 33 36 31 29 30 33 37 38 35 30 37 40 38 36 30 26 26 28 30 31 28 26 26 27 28 30 25 33 30 25 26 22 21 24 20 24 25 27
40 39 39 40 39 35 25 26 29 30 33 35 33 32 32 35 37 39 40 40 34 37 38 38 33 26 24 24 27 29 30 29 30 28 27 27 33 28 33 33 30 31 25 22 26 26 25 26 19
36 38 40 38 36 32 22 31 30 33 33 35 33 33 36 39 39 40 43 44 34 37 38 37 31 24 23 23 24 25 31 32 30 29 29 27 26 26 30 25 27 29 24 20 28 32 32 27 25
39 41 37 34 34 31 28 37 35 34 34 34 33 33 38 37 38 42 44 43 34 40 37 36 32 23 21 20 23 26 31 28 27 27 28 27 26 28 26 29 38 28 31 19 28 34 33 30 28
44 42 37 34 33 33 34 35 34 33 33 34 36 35 36 35 39 42 45 43 36 40 37 37 33 23 20 20 25 25 27 25 24 25 26 26 26 27 27 19 32 27 31 21 27 34 36 32 28
41 45 37 35 34 36 37 35 34 36 36 36 38 34 33 35 38 42 44 43 35 36 40 38 29 23 20 21 25 24 23 22 20 21 23 25 25 25 23 19 30 27 33 30 26 33 35 34 29
41 38 37 38 36 36 35 36 35 34 37 35 32 31 31 34 37 40 41 43 35 32 37 35 27 22 20 21 23 23 22 22 19 17 18 25 25 24 23 23 29 28 33 26 24 29 30 32 35
42 40 39 38 36 37 37 36 32 41 33 30 32 29 32 35 36 34 38 38 33 32 39 34 27 23 19 21 21 21 21 21 18 19 16 21 24 25 26 24 29 38 35 32 21 24 30 32 31
38 39 38 39 37 37 38 35 42 32 30 30 29 32 34 34 36 32 33 36 33 32 39 36 26 24 19 21 21 19 19 19 18 18 19 18 23 26 30 29 33 35 31 37 26 28 31 32 34
38 37 38 38 36 35 36 38 37 34 28 29 29 33 37 37 37 34 36 37 33 33 34 33 28 22 20 22 21 18 18 17 16 16 16 17 19 25 25 31 33 37 38 33 32 32 33 33 35
36 37 36 36 36 35 33 36 36 36 39 35 34 35 36 39 36 34 34 34 35 32 35 32 28 23 22 25 20 18 19 18 16 16 16 17 20 22 24 29 35 39 43 38 38 31 34 35 37
37 35 36 39 35 33 32 37 34 34 36 33 37 35 35 37 35 33 32 35 32 34 29 29 23 24 23 26 19 18 19 18 16 17 18 22 22 24 26 30 33 39 38 41 41 32 33 36 34
36 39 38 35 32 32 33 37 36 35 36 40 35 36 36 37 34 33 36 36 30 26 25 24 22 25 24 24 17 18 19 18 17 19 21 22 25 26 28 31 34 41 43 45 42 34 29 35 37
37 37 37 35 35 34 34 35 37 41 37 41 37 37 37 39 37 35 31 31 29 26 25 27 27 29 23 21 17 18 19 22 25 28 30 27 25 24 25 33 32 35 44 47 38 30 30 29 33
36 36 35 36 35 36 34 35 39 37 38 42 40 40 38 41 40 34 29 31 30 28 27 28 28 28 20 19 15 15 19 26 28 25 24 25 22 24 28 28 38 33 48 47 36 22 29 31 31
35 35 34 35 33 33 36 39 34 34 37 42 41 38 36 43 39 35 32 29 27 31 31 29 29 22 19 17 14 16 19 18 19 18 14 17 16 21 32 27 29 37 45 45 36 27 32 32 30
34 33 33 32 32 32 33 35 32 33 38 43 37 35 36 43 39 36 32 25 28 30 30 30 28 18 19 16 14 15 13 13 13 7 4 7 10 13 28 33 37 43 51 48 39 32 30 34 33
32 31 31 31 30 32 28 31 33 31 36 30 32 30 35 39 37 34 27 25 26 28 27 28 25 16 18 16 13 13 12 10 8 3 3 0 4 6 13 20 37 37 53 45 32 41 35 32 32
33 32 30 30 30 29 26 31 25 24 22 27 26 30 37 36 33 31 27 27 28 29 25 23 22 17 18 17 13 12 10 7 5 4 2 2 2 1 4 7 15 35 42 34 31 24 21 28 29
31 30 30 31 30 26 26 27 16 13 18 13 20 27 35 36 34 30 29 26 23 29 25 22 20 20 19 19 14 11 9 7 6 4 2 3 4 5 6 8 11 10 29 29 31 26 26 22 24
29 31 28 29 29 23 24 19 14 11 17 24 26 29 31 35 35 31 30 35 24 29 27 24 23 22 20 20 16 10 10 7 6 7 5 2 1 3 8 10 13 17 25 20 30 35 25 24 28
29 28 28 28 27 24 20 19 18 17 16 19 29 34 33 35 32 32 31 31 29 35 31 29 24 25 21 19 17 13 9 9 6 7 7 6 4 2 2 7 11 17 19 21 25 19 26 28 32
28 27 26 26 24 24 17 16 17 17 19 14 31 36 37 35 33 31 29 32 25 33 32 31 26 25 22 20 18 15 11 7 6 5 5 6 7 5 4 6 7 12 21 25 26 20 21 24 28
26 24 24 23 22 22 16 16 14 17 21 23 27 39 41 36 36 35 35 34 30 34 33 31 28 23 22 21 17 15 14 11 10 7 4 5 8 9 9 8 7 9 11 15 18 19 22 19 19
23 21 21 20 21 20 18 12 14 14 18 21 29 40 41 40 38 38 37 34 36 35 36 34 30 24 20 19 17 16 16 14 12 13 10 7 5 5 6 9 12 13 12 11 15 19 21 20 19
Wind_Direction
269 270 270 274 276 277 291 296 293 294 292 294 296 298 294 297 302 295 301 301 308 310 312 307 297 290 295 293 292 289 284 282 279 271 273 275 276 273 265 257 257 246 240 231 228 225 222 217 215
268 270 269 269 271 275 296 291 289 292 293 296 294 292 296 296 299 298 302 302 309 309 309 302 295 290 293 292 294 292 285 280 275 274 273 274 271 272 270 265 261 243 231 225 223 220 211 207 211
266 269 268 268 265 275 286 284 281 285 289 291 290 290 290 297 294 296 295 298 304 304 303 300 297 291 291 290 294 291 287 279 273 273 275 281 274 268 262 257 254 248 238 220 214 213 209 209 209
264 268 267 266 267 277 282 272 276 281 283 283 285 286 291 292 289 290 288 292 296 298 297 299 297 291 291 289 294 293 287 277 271 272 274 276 274 261 262 259 259 249 240 228 213 210 206 206 211
262 264 268 268 269 275 269 263 268 276 277 278 281 283 288 285 283 283 285 287 291 288 293 292 292 287 287 291 293 292 288 278 275 274 273 275 273 257 259 253 254 248 243 229 215 203 207 205 215
263 265 267 268 268 268 260 256 270 270 272 274 275 280 282 276 278 278 283 288 289 283 288 288 287 283 286 292 296 295 290 285 279 278 272 274 264 255 246 253 238 239 238 228 208 205 204 211 212
265 264 265 264 264 268 257 258 261 260 265 267 270 278 278 276 277 281 287 284 288 284 288 285 284 285 287 290 291 290 286 283 282 280 278 278 242 273 291 266 236 248 222 218 213 199 204 217 220
267 266 263 263 266 264 257 253 249 255 258 265 270 277 276 274 278 282 283 282 285 289 290 285 282 284 286 285 284 286 286 289 285 275 274 275 267 259 272 276 248 253 228 213 212 203 203 207 213
263 262 263 264 265 260 238 251 251 256 257 263 270 268 268 272 281 278 281 283 288 288 291 284 277 278 280 277 278 286 284 286 283 277 268 270 262 260 269 277 244 238 261 236 216 207 208 201 209
264 264 263 265 260 252 246 254 251 258 262 267 271 266 269 280 281 278 279 282 285 290 291 288 275 274 273 270 276 285 285 284 276 273 264 260 259 255 262 259 215 228 243 226 212 210 210 206 211
267 262 263 266 260 255 252 257 260 267 270 261 266 276 281 281 282 279 279 278 283 282 283 284 274 274 266 269 280 285 284 284 281 276 254 250 252 255 255 241 205 220 226 226 209 210 211 212 212
265 262 261 259 257 251 256 261 269 271 269 257 271 277 283 285 284 281 282 280 279 277 277 275 272 269 263 271 283 285 284 283 288 282 255 241 246 248 246 242 223 211 222 221 208 210 211 213 214
263 265 264 259 256 258 260 267 261 262 266 260 272 281 281 282 282 281 275 276 277 276 275 274 266 264 261 270 281 285 284 282 285 275 263 250 245 242 235 235 213 211 220 222 213 213 211 212 212
260 261 261 262 258 257 260 259 261 264 265 261 269 277 277 281 276 272 268 274 273 274 273 278 262 260 256 266 276 281 284 282 283 281 257 249 245 246 244 239 213 203 207 198 216 212 212 213 215
257 258 260 260 259 260 258 261 268 265 261 262 260 270 269 271 267 263 263 267 269 276 268 270 261 259 253 263 271 279 283 281 280 278 264 251 250 256 246 237 228 205 201 209 221 218 215 214 216
253 255 257 261 257 255 259 265 265 267 267 268 271 268 268 263 259 256 261 266 266 272 271 262 263 266 251 262 267 276 279 279 281 281 275 267 268 258 254 237 229 212 205 209 217 221 219 217 224
255 257 256 254 256 260 264 263 268 270 271 275 277 271 281 272 253 254 258 262 265 264 258 256 270 271 253 258 265 275 276 275 277 279 273 273 273 268 257 236 227 222 210 209 214 211 222 223 227
252 250 252 256 252 253 256 264 267 269 275 279 283 280 278 269 247 250 252 254 258 256 254 267 276 272 256 252 261 275 278 280 278 279 278 278 272 267 262 232 229 219 206 201 205 205 216 217 220
247 251 256 255 257 252 256 264 269 273 278 281 280 281 269 251 239 243 245 249 258 262 263 272 282 272 245 248 258 271 277 281 285 285 281 278 279 268 245 221 208 213 217 204 205 205 218 217 214
251 250 253 254 254 257 260 261 266 275 280 278 279 281 265 239 235 235 236 239 243 259 270 271 277 264 240 248 260 269 277 288 290 283 272 268 266 263 213 215 212 209 207 208 213 221 225 219 217
254 253 251 251 252 259 261 261 273 280 281 280 277 274 253 233 231 230 227 226 232 254 263 267 272 245 238 247 256 268 286 285 296 287 267 259 252 243 220 217 205 212 205 214 218 226 221 220 224
250 254 252 253 256 259 264 269 281 280 282 279 269 255 235 229 229 225 219 211 229 242 251 258 262 228 233 240 252 279 292 296 311 311 240 236 250 211 220 209 209 214 212 216 217 231 222 221 224
257 257 256 257 259 261 275 281 285 289 280 264 251 232 221 226 228 216 205 206 229 239 240 251 248 215 230 232 254 278 295 302 321 11 76 53 287 226 208 212 206 213 216 221 216 219 216 222 227
252 256 258 259 262 267 280 280 293 286 269 242 225 216 213 221 217 210 208 208 229 227 234 243 226 214 225 226 249 272 289 298 309 287 197 172 175 160 283 277 202 212 219 217 213 221 229 232 231
250 255 260 263 265 269 276 283 292 263 227 225 248 233 223 219 207 202 208 221 237 224 222 234 219 217 221 222 237 267 283 291 294 285 248 229 229 206 193 210 220 221 223 234 229 243 241 250 242
251 255 260 261 262 267 270 286 258 222 225 246 263 225 208 199 201 204 210 218 222 217 231 235 226 219 219 223 232 256 274 286 289 289 283 266 252 257 214 218 219 223 225 233 230 243 243 242 252
250 255 256 257 259 263 274 275 258 227 245 267 227 213 208 203 202 206 218 224 225 207 222 235 230 222 218 224 227 238 260 276 277 279 283 300 277 255 235 226 237 226 230 247 237 248 246 248 252
249 252 254 253 257 259 270 265 257 239 238 245 219 210 206 205 206 207 219 227 201 209 218 229 233 229 221 221 226 230 240 252 265 281 287 290 295 291 262 249 246 234 238 238 246 263 262 256 253
247 249 247 250 256 262 264 258 254 242 232 236 221 211 209 211 214 211 223 221 202 204 219 229 235 227 227 227 225 227 237 241 242 234 271 302 302 298 293 284 267 251 255 254 252 254 255 263 258
241 242 249 245 250 264 258 250 245 248 242 236 221 211 210 212 217 219 221 210 207 208 215 228 234 228 232 236 233 234 238 245 250 249 245 250 275 302 310 299 293 287 280 269 251 253 261 262 259